Regional Weather Roundup
Issued by NWS Kansas City/Pleasant Hill, MO

Home | Current Version | Previous Version | Graphics & Text | Print | Product List | Glossary Off
Versions: 1 2 3 4 5 6 7 8 9 10 11 12 13 14 15 16 17 18 19 20 21 22 23 24 25 26 27 28 29 30 31 32 33 34 35 36 37 38 39 40 41 42 43 44 45 46 47 48 49 50

088
ASUS43 KEAX 031310
RWREAX

WEATHER ROUNDUP FOR EASTERN KANSAS AND NORTHWEST MISSOURI
NATIONAL WEATHER SERVICE KANSAS CITY/PLEASANT HILL MO
800 AM CDT TUE MAY 03 2016

KSZ040-057-103>105-MOZ028-029-037-043-031400-
...KANSAS CITY METROPOLITAN AREA...

CITY           SKY/WX    TMP DP  RH WIND       PRES   REMARKS
K.C. INTL      FAIR      50  46  86 W5        30.08R
K.C. DOWNTOWN  FAIR      49  46  90 CALM      30.08R
LEES SUMMIT    FAIR      48  46  93 CALM      30.08R
OLATHE - IXD   FAIR      49  45  86 W6        30.09R
OLATHE - OJC     N/A     49  45  86 NW5       30.08R
LAWRENCE       FAIR      44  43  96 NW3       30.09R

$$

MOZ001>008-011>017-020>025-030>033-038>040-044>046-053-054-031400-
...NORTHERN AND CENTRAL MISSOURI...

CITY           SKY/WX    TMP DP  RH WIND       PRES   REMARKS
ST. JOSEPH     FOG       44  44 100 CALM      30.08R VSB<1/4
WARRENSBURG    FAIR      45  43  93 CALM      30.08S FOG
WHITEMAN AFB   MOSUNNY   47  47 100 W2        30.07R
CLINTON        FAIR      46  46 100 CALM      30.09R FOG
SEDALIA        FAIR      49  47  93 NW5       30.09R FOG
WARSAW         NOT AVBL
CHILLICOTHE      N/A     46  44  93 CALM      30.09R
KIRKSVILLE     FAIR      51  46  83 NW5       30.06S

$$

MOZ041-047>049-056>058-063>065-088>090-097-031400-
...EASTERN AND SOUTHERN MISSOURI...

CITY           SKY/WX    TMP DP  RH WIND       PRES   REMARKS
ST. LOUIS INTL PTSUNNY   56  49  77 NW6       30.04R
SPIRIT OF STL  FAIR      54  49  83 W3        30.04R
COLUMBIA       FOG       46  46 100 CALM      30.07R VSB<1/4
JEFFERSON CITY FOG       46  45  96 NW5       30.08R VSB 1/4
ROLLA          CLOUDY    48  46  93 NW3       30.05R FOG
OSAGE BEACH    CLOUDY    46  39  76 CALM      30.08R VSB 1/4
SPRINGFIELD    FOG       45  43  93 CALM      30.08R VSB 1/4
BRANSON        MOSUNNY   48  45  87 CALM      30.09R
JOPLIN         FAIR      47  47 100 CALM      30.11R FOG
WEST PLAINS    PTSUNNY   53  45  74 N10G20    30.06R

$$

IAZ060-094-KSZ022-034>040-054-083-096-NEZ052-066-093-031400-
...KANSAS...SOUTHEAST NEBRASKA AND IOWA...

CITY           SKY/WX    TMP DP  RH WIND       PRES   REMARKS
TOPEKA         PTSUNNY   45  44  97 CALM      30.09R FOG
MANHATTAN      FAIR      48  44  86 CALM      30.08S
EMPORIA        FAIR      48  45  89 CALM      30.09R
CHANUTE        FAIR      48  46  93 CALM      30.10S
WICHITA        FAIR      48  43  82 S6        30.07S
OMAHA          FAIR      50  45  83 CALM      30.07R
LINCOLN        FAIR      45  42  89 SE3       30.07F
FALLS CITY     FAIR      49  45  86 W5        30.07R
LAMONI         FAIR      51  45  79 W7        30.06R
DES MOINES     FAIR      49  43  80 CALM      30.05R

$$





USA.gov is the U.S. government's official web portal to all federal, state and local government web resources and services.